TimeCST,TemperatureF,Dew PointF,Humidity,Sea Level PressureIn,VisibilityMPH,Wind Direction,Wind SpeedMPH,Gust SpeedMPH,PrecipitationIn,Events,Conditions,WindDirDegrees,DateUTC
12:04 AM,57.2,57.2,100,29.93,1.5,South,3.5,-,N/A,,Mostly Cloudy,180,2012-12-07 06:04:00
12:11 AM,57.2,57.2,100,29.93,0.5,South,4.6,-,N/A,Fog,Fog,170,2012-12-07 06:11:00
12:40 AM,57.2,55.4,94,29.93,2.0,SSW,3.5,-,N/A,,Overcast,200,2012-12-07 06:40:00
12:53 AM,57.9,57.9,100,29.92,5.0,Calm,Calm,-,N/A,,Overcast,0,2012-12-07 06:53:00
1:06 AM,57.2,57.2,100,29.92,4.0,Calm,Calm,-,N/A,,Mostly Cloudy,0,2012-12-07 07:06:00
1:13 AM,57.2,57.2,100,29.92,4.0,Calm,Calm,-,N/A,,Overcast,0,2012-12-07 07:13:00
1:28 AM,57.2,57.2,100,29.92,4.0,SSE,3.5,-,N/A,,Overcast,160,2012-12-07 07:28:00
1:48 AM,57.2,57.2,100,29.92,4.0,SSE,4.6,-,N/A,,Overcast,160,2012-12-07 07:48:00
1:53 AM,57.9,57.0,97,29.92,4.0,SSE,3.5,-,N/A,,Overcast,160,2012-12-07 07:53:00
2:44 AM,57.2,57.2,100,29.92,4.0,SW,4.6,-,N/A,,Overcast,220,2012-12-07 08:44:00
2:53 AM,57.9,57.9,100,29.92,4.0,SSW,3.5,-,N/A,,Overcast,200,2012-12-07 08:53:00
3:53 AM,57.9,57.9,100,29.92,5.0,Calm,Calm,-,N/A,,Overcast,0,2012-12-07 09:53:00
4:53 AM,57.0,55.9,96,29.91,8.0,SSW,4.6,-,N/A,,Mostly Cloudy,210,2012-12-07 10:53:00
5:05 AM,55.4,55.4,100,29.92,7.0,Calm,Calm,-,N/A,,Mostly Cloudy,0,2012-12-07 11:05:00
5:35 AM,57.2,55.4,94,29.93,9.0,WSW,6.9,-,N/A,,Overcast,240,2012-12-07 11:35:00
5:53 AM,57.0,55.9,96,29.94,10.0,SW,5.8,-,N/A,,Overcast,230,2012-12-07 11:53:00
6:53 AM,55.9,55.0,97,29.94,9.0,Calm,Calm,-,N/A,,Overcast,0,2012-12-07 12:53:00
7:53 AM,57.0,55.9,96,29.94,6.0,Calm,Calm,-,N/A,,Overcast,0,2012-12-07 13:53:00
8:35 AM,57.2,55.4,94,29.95,6.0,SSE,3.5,-,N/A,,Mostly Cloudy,160,2012-12-07 14:35:00
8:53 AM,57.9,55.9,93,29.95,6.0,South,5.8,-,N/A,,Mostly Cloudy,170,2012-12-07 14:53:00
9:06 AM,57.2,55.4,94,29.95,6.0,SSE,5.8,-,N/A,,Mostly Cloudy,160,2012-12-07 15:06:00
9:53 AM,60.1,55.9,86,29.95,10.0,SW,9.2,-,N/A,,Overcast,220,2012-12-07 15:53:00
10:01 AM,60.8,55.4,82,29.95,10.0,SW,6.9,-,N/A,,Overcast,220,2012-12-07 16:01:00
10:34 AM,60.8,55.4,82,29.95,10.0,SSW,6.9,-,N/A,,Overcast,210,2012-12-07 16:34:00
10:48 AM,60.8,55.4,82,29.94,10.0,South,8.1,-,N/A,,Overcast,180,2012-12-07 16:48:00
10:53 AM,61.0,55.0,81,29.94,10.0,South,6.9,-,N/A,,Overcast,190,2012-12-07 16:53:00
11:53 AM,62.1,55.0,78,29.91,10.0,SSW,8.1,-,N/A,,Overcast,200,2012-12-07 17:53:00
12:53 PM,64.0,55.0,73,29.88,10.0,South,9.2,-,N/A,,Overcast,190,2012-12-07 18:53:00
1:53 PM,64.0,55.0,73,29.85,10.0,SSW,6.9,-,N/A,,Overcast,210,2012-12-07 19:53:00
2:53 PM,64.9,55.0,70,29.84,10.0,SSW,6.9,-,N/A,,Overcast,200,2012-12-07 20:53:00
3:53 PM,64.0,55.9,75,29.85,10.0,South,8.1,-,N/A,,Overcast,180,2012-12-07 21:53:00
4:20 PM,64.4,57.2,77,29.85,10.0,SSE,5.8,-,N/A,,Overcast,160,2012-12-07 22:20:00
4:53 PM,63.0,57.0,81,29.85,10.0,South,4.6,-,N/A,,Overcast,170,2012-12-07 22:53:00
5:53 PM,63.0,57.0,81,29.86,10.0,South,3.5,-,N/A,,Overcast,170,2012-12-07 23:53:00
6:53 PM,62.6,57.2,82,29.87,10.0,Calm,Calm,-,N/A,,Overcast,0,2012-12-08 00:53:00
7:53 PM,62.1,57.0,84,29.88,10.0,SSE,4.6,-,N/A,,Overcast,160,2012-12-08 01:53:00
8:16 PM,62.6,57.2,82,29.88,10.0,Calm,Calm,-,N/A,,Overcast,0,2012-12-08 02:16:00
8:53 PM,62.1,57.0,84,29.88,10.0,SSE,6.9,-,N/A,,Overcast,150,2012-12-08 02:53:00
9:53 PM,62.1,57.9,86,29.88,10.0,Calm,Calm,-,N/A,,Overcast,0,2012-12-08 03:53:00
10:30 PM,60.8,57.2,88,29.89,10.0,SSW,3.5,-,N/A,,Overcast,200,2012-12-08 04:30:00
10:53 PM,61.0,57.9,90,29.88,10.0,South,5.8,-,N/A,,Overcast,170,2012-12-08 04:53:00
11:06 PM,60.8,57.2,88,29.89,10.0,South,5.8,-,N/A,,Overcast,170,2012-12-08 05:06:00
11:53 PM,61.0,57.9,90,29.88,10.0,South,8.1,-,N/A,,Overcast,180,2012-12-08 05:53:00